Weather History for Dunkirk, NY

Change the Weather History Date:

Sunday, February 16, 2014

  Actual Average Record
Temperature  
Mean Temperature 8 °F -  
Max Temperature 17 °F 34 °F 66 °F (1954)
Min Temperature 0 °F 17 °F -7 °F (1930)
Degree Days  
Heating Degree Days 56    
Moisture  
Dew Point 7 °F    
Average Humidity 82    
Maximum Humidity 92    
Minimum Humidity 73    
Precipitation  
Precipitation 0.02 in - - ()
Sea Level Pressure  
Sea Level Pressure 30.10 in    
Wind  
Wind Speed 4 mph (West)    
Max Wind Speed 9 mph    
Max Gust Speed -    
Visibility 5 miles    
Events Snow    
Averages and records for this station are not official NWS values.
T = Trace of Precipitation, MM = Missing Value Source: NWS Daily Summary

Daily Weather History Graph

Daily Weather History Graph

Search for Another Location

Airport:

Trip Planner

Search our weather history database for the weather conditions in past years. The results will help you decide how hot, cold, wet, or windy it might be!

Date:

Astronomy

Feb. 16, 2014 Rise Set
Actual Time 7:12 AM EST 5:50 PM EST
Civil Twilight 6:43 AM EST 6:19 PM EST
Nautical Twilight 6:10 AM EST 6:52 PM EST
Astronomical Twilight 5:38 AM EST 7:24 PM EST
Moon 7:49 PM EST (2/16) 7:38 AM EST (2/16)
Length of Visible Light 11h 35m
Length of Day
10h 38m
Full, 97% of the Moon is Illuminated
Feb 16
Full
Feb 22
Last Quarter
Mar 1
New
Mar 8
First Quarter
Mar 16
Full

Hourly Weather History & Observations

Time (EST) Temp. Windchill Dew Point Humidity Pressure Visibility Wind Dir Wind Speed Gust Speed Precip Events Conditions
12:15 AM 10.9 °F -0.8 °F 6.1 °F 81% 30.04 in 10.0 mi WSW 8.1 mph - N/A   Scattered Clouds
12:53 AM 10.0 °F -1.9 °F 5.0 °F 80% 30.08 in 10.0 mi WSW 8.1 mph - N/A   Clear
1:53 AM 7.0 °F -1.7 °F 3.0 °F 84% 30.07 in 10.0 mi SW 4.6 mph - N/A   Clear
2:53 AM 6.1 °F -0.9 °F 3.0 °F 87% 30.06 in 10.0 mi WSW 3.5 mph - N/A   Clear
3:53 AM 1.0 °F - -2.9 °F 83% 30.07 in 10.0 mi Calm Calm - N/A   Clear
4:53 AM -0.0 °F - -4.0 °F 83% 30.06 in 10.0 mi Calm Calm - N/A   Clear
5:53 AM -0.0 °F -7.9 °F -4.0 °F 83% 30.05 in 10.0 mi South 3.5 mph - N/A   Clear
6:53 AM 3.0 °F -4.4 °F -0.9 °F 84% 30.06 in 10.0 mi SSW 3.5 mph - N/A   Overcast
7:53 AM 10.9 °F 4.7 °F 6.1 °F 81% 30.06 in 10.0 mi SSW 3.5 mph - N/A   Overcast
8:33 AM 10.9 °F 2.9 °F 6.1 °F 81% 30.03 in 1.8 mi SW 4.6 mph - 0.00 in Snow Light Snow
8:40 AM 12.0 °F 5.9 °F 7.0 °F 80% 30.04 in 1.0 mi SW 3.5 mph - 0.00 in Snow Light Snow
8:53 AM 12.0 °F 5.9 °F 8.1 °F 84% 30.08 in 0.8 mi South 3.5 mph - 0.00 in Snow Light Snow
9:05 AM 12.0 °F 5.9 °F 8.1 °F 84% 30.04 in 1.0 mi SSW 3.5 mph - 0.00 in Snow Light Snow
9:31 AM 12.9 °F - 9.0 °F 84% 30.04 in 0.8 mi Calm Calm - 0.00 in Snow Light Snow
9:48 AM 12.2 °F - 8.6 °F 85% 30.04 in 1.0 mi Calm Calm - 0.00 in Snow Light Snow
9:53 AM 12.9 °F - 9.0 °F 84% 30.08 in 1.0 mi Calm Calm - 0.00 in Snow Light Snow
10:03 AM 12.9 °F - 9.0 °F 84% 30.04 in 0.8 mi Calm Calm - 0.00 in Snow Light Snow
10:53 AM 15.1 °F - 10.9 °F 84% 30.08 in 1.0 mi Calm Calm - 0.01 in Snow Light Snow
11:13 AM 16.0 °F - 10.9 °F 81% 30.04 in 1.2 mi Calm Calm - 0.01 in Snow Light Snow
11:27 AM 16.0 °F 8.8 °F 10.0 °F 77% 30.04 in 1.0 mi North 4.6 mph - 0.01 in Snow Light Snow
11:34 AM 15.1 °F 6.4 °F 10.0 °F 80% 30.04 in 1.0 mi North 5.8 mph - 0.01 in Snow Light Snow
11:50 AM 15.8 °F 8.6 °F 10.4 °F 79% 30.04 in 0.8 mi North 4.6 mph - 0.01 in Snow Light Snow
11:53 AM 15.1 °F 7.7 °F 10.0 °F 80% 30.08 in 0.8 mi North 4.6 mph - 0.01 in Snow Light Snow
12:03 PM 15.1 °F 6.4 °F 10.9 °F 84% 30.04 in 1.0 mi North 5.8 mph - 0.00 in Snow Light Snow
12:22 PM 15.1 °F 6.4 °F 10.0 °F 80% 30.03 in 1.5 mi North 5.8 mph - 0.00 in Snow Light Snow
12:47 PM 17.6 °F 10.7 °F 10.4 °F 73% 30.02 in 2.0 mi North 4.6 mph - 0.00 in Snow Light Snow
12:53 PM 17.1 °F 10.0 °F 10.9 °F 77% 30.06 in 3.0 mi North 4.6 mph - 0.00 in Snow Light Snow
1:06 PM 16.0 °F 7.4 °F 10.9 °F 81% 30.02 in 2.0 mi North 5.8 mph - 0.00 in Snow Light Snow
1:39 PM 16.0 °F 6.3 °F 10.9 °F 81% 30.02 in 4.0 mi NNW 6.9 mph - 0.00 in Snow Light Snow
1:53 PM 16.0 °F 7.4 °F 10.9 °F 81% 30.06 in 2.5 mi North 5.8 mph - 0.00 in Snow Light Snow
2:37 PM 15.1 °F 6.4 °F 10.9 °F 84% 30.02 in 4.0 mi NNW 5.8 mph - 0.00 in   Overcast
2:53 PM 16.0 °F 10.4 °F 10.9 °F 81% 30.06 in 5.0 mi NNW 3.5 mph - 0.00 in   Haze
3:53 PM 15.1 °F 3.3 °F 9.0 °F 77% 30.09 in 10.0 mi NNW 9.2 mph - N/A   Overcast
4:53 PM 14.0 °F 6.5 °F 9.0 °F 80% 30.14 in 10.0 mi North 4.6 mph - N/A   Overcast
5:10 PM 14.0 °F - 9.0 °F 80% 30.09 in 6.0 mi Calm Calm - 0.00 in Snow Light Snow
5:29 PM 12.9 °F - 8.1 °F 81% 30.11 in 10.0 mi Calm Calm - 0.00 in   Mostly Cloudy
5:53 PM 14.0 °F 8.2 °F 8.1 °F 77% 30.17 in 10.0 mi West 3.5 mph - 0.00 in   Overcast
6:53 PM 7.0 °F -1.7 °F 5.0 °F 92% 30.23 in 10.0 mi WSW 4.6 mph - N/A   Mostly Cloudy
7:17 PM 9.0 °F -0.9 °F 6.1 °F 88% 30.19 in 10.0 mi WSW 5.8 mph - N/A   Mostly Cloudy
7:27 PM 10.9 °F 1.4 °F 8.1 °F 88% 30.19 in 10.0 mi WSW 5.8 mph - N/A   Mostly Cloudy
7:53 PM 12.0 °F 2.7 °F 8.1 °F 84% 30.25 in 5.0 mi SW 5.8 mph - 0.00 in   Overcast
8:10 PM 12.0 °F 2.7 °F 8.1 °F 84% 30.21 in 2.5 mi SW 5.8 mph - 0.00 in Snow Light Snow
8:33 PM 10.9 °F 0.2 °F 7.0 °F 84% 30.22 in 3.0 mi WSW 6.9 mph - 0.00 in Snow Light Snow
8:45 PM 10.9 °F 1.4 °F 8.1 °F 88% 30.23 in 4.0 mi WSW 5.8 mph - 0.00 in Snow Light Snow
8:53 PM 10.9 °F 1.4 °F 8.1 °F 88% 30.28 in 4.0 mi WSW 5.8 mph - 0.00 in   Overcast
9:53 PM 12.0 °F 0.5 °F 8.1 °F 84% 30.31 in 10.0 mi West 8.1 mph - N/A   Overcast
10:53 PM 8.1 °F -0.5 °F 3.9 °F 83% 30.35 in 10.0 mi West 4.6 mph - N/A   Clear
11:53 PM -0.0 °F -9.9 °F -5.1 °F 79% 30.38 in 10.0 mi SSW 4.6 mph - N/A   Clear